Location: Bracknell
(51.4167°N, 0.7500°W)
Time: 07:55:18
(UTC+00:00)

Daily predictions for brighter satellites

Satellite Brightness Start Highest point End
(mag) Time Altitude Azimuth Time Altitude Azimuth Time Altitude Azimuth
FengYun 1-2 T 4.4 16:57:37 10° SE 17:03:01 53° ENE 17:08:28 10° N
Tsikada Rocket 4.1 16:57:42 10° S 17:03:58 70° E 17:10:11 10° NNE
NOAA 12 4.1 16:59:40 10° SSE 17:04:52 70° ENE 17:10:06 10° NNW
SL-14 R/B 3.9 17:02:13 10° SSE 17:05:45 35° E 17:09:20 10° NNE
ATLAS 3B R/B 3.3 16:59:31 10° NW 17:06:22 66° SW 17:13:30 10° SSE
RESURS DK-1 2.6 17:02:38 10° SSW 17:06:40 56° ESE 17:10:45 10° NE
Cosmos 2228 3.4 17:03:09 10° N 17:07:12 41° ENE 17:11:15 10° SE
Cosmos 1400 Rocket 3.4 17:03:28 10° NNW 17:07:34 64° W 17:11:36 10° S
Cosmos 1538 Rocket 4.4 17:08:26 10° NNW 17:13:18 39° NE 17:18:07 10° SE
CZ-4C R/B 2.3 17:08:58 10° SW 17:14:06 80° NW 17:20:24 10° NE
Meteor 2-5 Rocket 3.9 17:09:20 10° SSE 17:14:40 49° E 17:19:58 10° NNE
CZ-3B R/B 1.3 17:13:11 10° WNW 17:15:07 45° NNE 17:18:40 10° E
CORIOLIS 4.1 17:16:14 10° SSE 17:21:38 81° ENE 17:27:02 10° NNW
Cosmos 2263 Rocket 2.3 17:16:30 10° SSW 17:22:05 61° ESE 17:27:41 10° NE
Cosmos 1455 3.7 17:21:55 10° NNE 17:24:28 17° ENE 17:27:01 10° ESE
Cosmos 968 Rocket 3.8 17:19:40 10° SSW 17:24:46 69° WNW 17:29:54 10° NNE
Envisat 4.2 17:20:06 10° S 17:25:00 48° W 17:29:57 10° NNW
Cosmos 2058 Rocket 3.8 17:22:30 10° N 17:26:34 32° ENE 17:30:36 10° SE
Cosmos 1354 Rocket 4.1 17:21:30 10° S 17:26:46 65° ESE 17:32:04 10° NNE
NOAA 11 4.2 17:21:35 10° SSE 17:27:05 81° ENE 17:32:38 10° NNW
USA-17 4.3 17:24:34 10° SW 17:28:08 71° SE 17:30:58 12° NE
Cosmos 1300 2.6 17:25:12 10° N 17:29:02 73° E 17:32:50 10° SSE
NOSS 7 (H) 4.0 17:29:47 10° SW 17:33:01 84° SE 17:35:34 13° NE
Landsat 5 3.4 17:30:10 10° NNE 17:34:11 86° WNW 17:38:03 10° SSW
Cosmos 1486 Rocket 4.5 17:30:23 10° SW 17:35:34 62° WNW 17:40:46 10° NNE
GENESIS II 4.4 17:32:01 10° SSW 17:35:57 58° SE 17:39:28 13° NE
ADEOS Rocket 4.1 17:32:12 10° N 17:38:02 43° WNW 17:43:23 10° SW
NOSS 3-1 (C) 4.3 17:32:46 10° NW 17:39:20 44° NNE 17:47:04 10° E
Lacrosse 5 1.8 17:34:19 10° WNW 17:39:24 72° NNE 17:44:27 10° ESE
ARGOS 4.1 17:35:10 10° ESE 17:39:25 25° ENE 17:43:41 10° N
CREW DRAGON DEMO-1 DEB 2.6 17:36:41 10° W 17:39:36 89° NNW 17:41:52 15° E
Cosmos 1943 3.9 17:35:49 10° NW 17:41:25 59° WSW 17:46:57 10° S
Cosmos 1726 Rocket 3.5 17:37:55 10° N 17:42:16 65° ENE 17:46:37 10° SSE
ERS-2 3.5 17:42:03 15° ENE 17:43:32 19° E 17:46:12 10° SE
ISS -1.3 17:43:11 10° SSE 17:43:51 10° SE 17:44:31 10° SE
CZ-2C R/B 4.5 17:45:49 12° E 17:45:49 12° E 17:47:00 10° ESE
Cosmos 1939 Rocket 2.8 17:42:02 10° SSE 17:46:09 72° ENE 17:50:14 10° N
Meteor 1-24 Rocket 3.5 17:43:25 10° S 17:48:43 70° E 17:54:01 10° NNE
COSMOS 2455 3.4 17:43:55 10° S 17:49:26 39° ESE 17:54:02 14° NE
Cosmos 1833 Rocket 4.0 17:48:22 10° NNW 17:52:32 21° NE 17:54:41 17° ENE
Cosmos 2082 Rocket 3.8 17:50:37 10° N 17:54:06 16° NNE 17:55:56 14° NE
Cosmos 1315 Rocket 3.5 17:50:56 10° NNW 17:54:49 56° W 17:58:45 10° S
USA 229 DEB 4.3 17:49:35 10° NW 17:56:17 42° NNE 18:01:49 17° E
USA 229 4.3 17:49:42 10° NW 17:56:22 42° NNE 18:01:52 17° E
IRS-1C Rocket 4.1 17:51:55 10° SSE 17:57:05 61° ENE 18:02:17 10° N
CZ-4 R/B 1.7 17:54:38 10° SE 17:58:29 41° ENE 18:02:18 10° N
Feng Yun 1-1 Rocket 4.2 17:54:21 10° SSE 17:59:47 82° ENE 18:05:22 10° NNW
COSMO-SKYMED 1 2.7 17:56:56 10° NNE 18:01:11 50° E 18:05:24 10° S
NOSS 3-4 (A) 4.2 17:55:46 10° WSW 18:01:31 45° NNW 18:07:06 13° NE
NOSS 3-4 (C) 4.2 17:55:54 10° WSW 18:01:40 46° NNW 18:07:15 13° NE
Cosmos 2279 Rocket 4.1 17:55:44 10° NNW 18:02:02 83° W 18:08:17 10° S
Cosmos 2227 4.4 18:00:46 10° SW 18:06:23 73° WNW 18:12:07 10° NNE
Cosmos 2227 Rocket 4.2 18:05:41 10° W 18:09:58 21° NW 18:14:16 10° NNE
CZ-4B R/B 1.3 18:08:14 12° NNE 18:11:25 72° ESE 18:14:44 10° S
NOSS 3-1 (A) 4.3 18:05:17 10° NW 18:11:53 44° NNE 18:16:57 21° E
CZ-4 R/B 4.3 18:07:47 10° SSE 18:11:55 80° ENE 18:16:05 10° NNW
Okean-O 2.6 18:10:17 10° SSE 18:14:37 56° ENE 18:18:59 10° N
Cosmos 923 Rocket 4.1 18:09:50 10° NNW 18:15:06 55° ENE 18:20:20 10° SE
CSL-04 DEB 4.4 18:10:52 10° NNE 18:15:08 88° WNW 18:19:16 10° SSW
CZ-2C R/B 3.1 18:10:50 10° SSE 18:16:10 86° ENE 18:21:50 10° NNW
Cosmos 1844 Rocket 3.2 18:11:23 10° S 18:16:34 39° ESE 18:19:24 23° ENE
Okean O Rocket 3.4 18:13:36 10° SSW 18:17:42 35° W 18:21:47 10° NNW
Cosmos 1689 Rocket 4.2 18:20:00 14° SSE 18:20:00 14° SSE 18:20:37 10° SSE
Cosmos 1626 4.1 18:15:13 10° SW 18:18:29 29° WNW 18:21:45 10° N
H-2A R/B 2.0 18:13:44 10° SSE 18:18:37 57° ENE 18:23:40 10° N
SeaSat 1 4.5 18:15:11 10° N 18:18:54 22° NW 18:22:37 10° W
ATLAS 2AS CENTAUR R/B 3.6 18:11:27 10° WSW 18:19:12 53° NNW 18:25:30 15° NE
Aureole 2 Rocket 2.8 18:17:05 10° S 18:19:29 34° SE 18:19:29 34° SE
Cosmos 158 Rocket 4.0 18:15:14 10° NNW 18:20:32 64° ENE 18:25:54 10° SE
Cosmos 1680 Rocket 3.7 18:17:22 10° NNW 18:22:29 49° ENE 18:26:36 15° SE
SKYMED 3 4.5 18:20:51 10° NNE 18:25:13 85° ESE 18:29:35 10° SSW
SAR-Lupe-4 3.7 18:31:27 48° E 18:31:31 48° E 18:34:59 10° S
Meteor 2-10 Rocket 3.9 18:26:30 10° NNW 18:32:03 69° W 18:37:21 10° S
CZ-2D R/B 4.0 18:28:24 10° S 18:32:11 55° W 18:36:00 10° NNW
Cosmos 1818 3.9 18:28:03 10° SSW 18:33:11 44° ESE 18:34:52 34° ENE
H-2A R/B 3.6 18:29:25 10° N 18:33:34 37° WNW 18:37:36 10° SW
Cosmos 489 Rocket 4.5 18:27:47 10° NNW 18:34:13 88° ENE 18:40:34 10° SSE
Cosmos 2297 Rocket 4.4 18:31:37 10° WNW 18:34:56 15° NNW 18:38:15 10° N
YAOGAN 1 2.4 18:32:13 10° SSE 18:36:33 85° ENE 18:40:55 10° NNW
Cosmos 1892 Rocket 3.9 18:33:40 10° SSW 18:37:59 65° WNW 18:42:19 10° N
CSL-04 Rocket 3.6 18:35:10 10° SSE 18:40:29 63° ENE 18:45:56 10° N
Helios 1A Rocket 2.8 18:37:19 10° SSE 18:41:28 79° ENE 18:45:38 10° NNW
SAR-Lupe-1 4.0 18:42:35 62° ESE 18:42:35 62° ESE 18:45:58 10° S
APEX 4.5 18:35:37 10° SSW 18:42:36 75° ESE 18:46:31 25° NE
USA 234 3.3 18:40:20 31° E 18:43:32 64° NNE 18:50:00 10° WNW
Aureole 1 4.3 18:40:35 10° NNW 18:43:40 70° WSW 18:44:09 56° S
RESURS DK-1 4.4 18:41:36 10° W 18:45:01 24° NW 18:47:47 13° N
Iridium 4 Rocket 3.7 18:39:36 10° N 18:45:17 55° E 18:50:33 10° SSE
MOS 1 Rocket 3.1 18:41:05 10° NNE 18:45:27 81° WNW 18:49:44 10° SSW
ATLAS 5 CENTAUR R/B 2.4 18:41:31 10° WSW 18:45:32 45° NW 18:47:37 27° NNE
Meteor 2-1 Rocket 4.2 18:40:50 10° NNW 18:46:28 81° W 18:51:58 10° S
Cosmos 1092 Rocket 4.0 18:40:43 10° SSE 18:46:44 56° E 18:52:44 10° NNE
Cosmos 1812 Rocket 3.5 18:43:57 10° N 18:48:20 58° ENE 18:48:54 53° ESE
SKYMED 2 4.1 18:44:58 10° N 18:49:14 58° WNW 18:53:30 10° SSW
Cosmos 2344 4.2 18:42:52 10° NW 18:51:36 70° NE 18:59:36 23° ESE
SJ 16-02 1.2 18:51:00 10° SSW 18:55:23 75° ESE 18:55:59 63° NE
SJ-11-01 4.3 18:51:02 10° S 18:55:44 78° WSW 19:00:26 10° NNW
Aureole 3 3.6 18:52:29 10° NNW 18:56:08 55° W 18:59:12 10° S
Cosmos 2112 Rocket 3.8 18:54:45 10° NNW 19:00:03 79° ENE 19:02:18 35° SSE
Cosmos 1455 3.0 18:56:41 10° NNW 19:00:23 51° W 19:04:06 10° S
CZ-4C R/B 3.6 18:58:29 10° W 19:03:34 33° NNW 19:06:29 23° NNE
MetOp-A 4.5 19:04:29 45° NE 19:04:29 45° NE 19:08:52 10° N
Nadezhda 4 Rocket 4.1 18:57:53 10° SSW 19:04:08 75° WNW 19:10:21 10° N
Cosmos 2263 Rocket 3.7 19:01:19 10° WSW 19:06:23 33° NW 19:10:38 14° NNE
X-37B 3.3 19:04:47 10° SSW 19:05:31 14° SSW 19:05:31 14° SSW
COSMOS 2406 3.2 19:09:03 10° NNW 19:14:48 59° NE 19:14:49 59° NE
ERS-2 3.3 19:16:37 37° NW 19:17:15 41° WNW 19:20:40 10° SW
ARGOS 3.4 19:13:56 10° S 19:19:15 67° WSW 19:24:38 10° NNW
ISS -1.4 19:16:45 10° SW 19:17:58 19° SW 19:17:58 19° SW
Lacrosse 5 3.1 19:17:32 10° WNW 19:22:09 36° SW 19:24:15 25° S
CZ-2C R/B 3.0 19:27:19 51° SSE 19:27:19 51° SSE 19:31:34 10° S
Cosmos 1626 Rocket 4.2 19:26:26 10° SSW 19:30:43 54° WNW 19:31:13 51° NW
NOSS 3-1 (C) 4.0 19:23:35 10° NW 19:30:55 81° SW 19:34:39 37° SSE
CZ-4 R/B 3.8 19:30:22 10° SSW 19:33:39 23° W 19:36:56 10° NW
COSMOS 2455 3.4 19:29:19 10° WSW 19:35:14 54° NW 19:37:13 38° N
Cosmos 1553 Rocket 3.9 19:29:07 10° N 19:35:35 79° E 19:36:14 71° SE
Cosmos 1833 Rocket 2.9 19:31:50 10° NNW 19:36:25 57° N 19:36:25 57° N
Cosmos 1844 3.8 19:32:45 10° SW 19:38:25 74° WNW 19:39:07 65° N
Cosmos 2082 Rocket 3.2 19:34:09 10° NNW 19:37:48 35° N 19:37:48 35° N
Cosmos 2026 Rocket 3.9 19:35:02 10° SSW 19:41:09 81° W 19:47:25 10° N
USA 281 3.8 19:43:32 41° NNE 19:43:32 41° NNE 19:48:24 10° NNW
SL-08 RB Rocket 4.5 19:43:21 49° WNW 19:43:21 49° WNW 19:47:17 10° NNW
USA 229 DEB 3.8 19:40:41 10° NW 19:47:56 83° SW 19:49:18 63° SSE
USA 229 3.8 19:40:47 10° NW 19:48:02 83° SW 19:49:21 64° SSE
USA 267 3.9 19:51:34 40° S 19:51:34 40° S 19:56:11 10° SSW
H-2A R/B 4.2 19:54:27 10° SW 19:58:27 24° W 20:02:33 10° NW
Cosmos 1844 Rocket 3.5 19:54:58 10° SW 20:00:25 46° NW 20:01:07 44° NNW
NOSS 3-1 (A) 4.0 19:56:09 10° NW 20:03:30 80° SW 20:04:27 71° S
ATLAS 2AS CENTAUR R/B 4.0 20:04:52 10° WNW 20:11:52 33° N 20:12:56 32° N
USA 234 3.6 20:27:40 60° W 20:27:40 60° W 20:33:07 10° WNW
ATLAS 5 CENTAUR R/B 4.3 20:27:46 10° WNW 20:29:10 16° NW 20:29:10 16° NW
SJ 16-02 4.1 20:31:24 10° W 20:33:02 16° WNW 20:33:02 16° WNW
CZ-4C R/B 4.2 20:48:27 10° NW 20:51:41 25° NNW 20:51:41 25° NNW
